Location: Newark
(44.3867°N, 6.6531°E)
Time: 05:29:21
(UTC+00:00)

Envisat - Pass Details

Date: 26 January 2020
Orbit: 764 x 766 km, 98.1° (Epoch: 20 February)

Event Time Altitude Azimuth Distance (km) Brightness Sun altitude
Rises 18:30:31 0° 204° (SSW) 3,220 6.7 -20.8°
Reaches altitude 10° 18:33:23 10° 221° (SW) 2,299 6.1 -21.3°
Maximum altitude 18:37:06 20° 268° (W) 1,706 5.7 -22.0°
Drops below altitude 10° 18:40:49 10° 316° (NW) 2,311 6.0 -22.6°
Sets 18:43:44 0° 333° (NNW) 3,243 6.5 -23.2°
